Simultaneous Nadir Overpasses (SNOs) Predictions

Prediction of SNOs between AQUA and METOP-B Satellite Orbit:

Table of predicted SNOs for the next 14.0 days since TLE Epoch: 11/4/2016
Index Date (AQUA) Time (AQUA) Lat,Lon (AQUA) SZA (AQUA ) Date (METOP-B) Time (METOP-B) Lat,Lon (METOP-B) SZA (METOP-B ) Distance(km) Time Diff (sec)
1 11/05/2016 19:43:47 -73.70, 58.42 90.40 11/05/2016 19:43:10 -73.69, 58.48 90.41 2.57 37
2 11/05/2016 20:33:15 73.72,-133.99 89.64 11/05/2016 20:33:49 73.74,-134.05 89.66 2.97 34
3 11/08/2016 15:18:02 -73.69, 124.90 89.59 11/08/2016 15:17:34 -73.68, 124.88 89.59 0.66 28
4 11/08/2016 16:07:31 73.77, -67.64 90.50 11/08/2016 16:08:13 73.74, -67.67 90.47 3.43 42
5 11/11/2016 10:52:16 -73.68,-168.65 88.81 11/11/2016 10:51:57 -73.68,-168.73 88.81 2.47 19
6 11/11/2016 11:41:45 73.77, -1.20 91.29 11/11/2016 11:42:35 73.78, -1.17 91.30 1.45 50
7 11/14/2016 05:36:57 73.26, 91.03 91.51 11/14/2016 05:35:48 73.23, 89.33 91.50 54.60 69
8 11/14/2016 06:26:31 -73.69,-102.22 88.06 11/14/2016 06:26:20 -73.72,-102.23 88.02 3.74 11
9 11/14/2016 07:16:00 73.78, 65.21 92.05 11/14/2016 07:16:59 73.76, 65.21 92.04 1.90 59
10 11/17/2016 01:11:18 73.60, 156.76 92.56 11/17/2016 01:10:05 73.57, 156.50 92.53 9.13 73
11 11/17/2016 02:00:46 -73.70, -35.82 87.33 11/17/2016 02:00:44 -73.71, -35.85 87.33 0.94 2




NCC Satellite Simultaneous Nadir Overpasses (SNOs) Prediction Service
